Year,Month,Day,Hour,Minute,Value (Times are PST for temperature in C)
2019,06,11,00,00,14.20
2019,06,11,00,01,14.10
2019,06,11,00,02,14.10
2019,06,11,00,03,14.10
2019,06,11,00,04,14.10
2019,06,11,00,05,14.10
2019,06,11,00,06,14.20
2019,06,11,00,07,14.30
2019,06,11,00,08,14.30
2019,06,11,00,09,14.30
2019,06,11,00,10,14.40
2019,06,11,00,11,14.40
2019,06,11,00,12,14.40
2019,06,11,00,13,14.50
2019,06,11,00,14,14.60
2019,06,11,00,15,14.70
2019,06,11,00,16,14.80
2019,06,11,00,17,14.80
2019,06,11,00,18,14.80
2019,06,11,00,19,14.80
2019,06,11,00,20,14.70
2019,06,11,00,21,14.70
2019,06,11,00,22,14.70
2019,06,11,00,23,14.60
2019,06,11,00,24,14.60
2019,06,11,00,25,14.60
2019,06,11,00,26,14.60
2019,06,11,00,27,14.50
2019,06,11,00,28,14.50
2019,06,11,00,29,14.50
2019,06,11,00,30,14.50
2019,06,11,00,31,14.40
2019,06,11,00,32,14.40
2019,06,11,00,33,14.30
2019,06,11,00,34,14.30
2019,06,11,00,35,14.30
2019,06,11,00,36,14.20
2019,06,11,00,37,14.20
2019,06,11,00,38,14.20
2019,06,11,00,39,14.20
2019,06,11,00,40,14.10
2019,06,11,00,41,14.10
2019,06,11,00,42,14.10
2019,06,11,00,43,14.10
2019,06,11,00,44,14.10
2019,06,11,00,45,14.10
2019,06,11,00,46,14.10
2019,06,11,00,47,14.10
2019,06,11,00,48,14.10
2019,06,11,00,49,14.10
2019,06,11,00,50,14.10
2019,06,11,00,51,14.10
2019,06,11,00,52,14.10
2019,06,11,00,53,14.10
2019,06,11,00,54,14.10
2019,06,11,00,55,14.10
2019,06,11,00,56,14.10
2019,06,11,00,57,14.10
2019,06,11,00,58,14.10
2019,06,11,00,59,14.10
2019,06,11,01,00,14.00
2019,06,11,01,01,14.00
2019,06,11,01,02,14.00
2019,06,11,01,03,14.00
2019,06,11,01,04,14.00
2019,06,11,01,05,13.90
2019,06,11,01,06,13.90
2019,06,11,01,07,13.90
2019,06,11,01,08,13.90
2019,06,11,01,09,13.80
2019,06,11,01,10,13.80
2019,06,11,01,11,13.80
2019,06,11,01,12,13.80
2019,06,11,01,13,13.80
2019,06,11,01,14,13.70
2019,06,11,01,15,13.70
2019,06,11,01,16,13.70
2019,06,11,01,17,13.70
2019,06,11,01,18,13.70
2019,06,11,01,19,13.60
2019,06,11,01,20,13.60
2019,06,11,01,21,13.60
2019,06,11,01,22,13.60
2019,06,11,01,23,13.60
2019,06,11,01,24,13.60
2019,06,11,01,25,13.60
2019,06,11,01,26,13.60
2019,06,11,01,27,13.60
2019,06,11,01,28,13.70
2019,06,11,01,29,13.70
2019,06,11,01,30,13.70
2019,06,11,01,31,13.70
2019,06,11,01,32,13.70
2019,06,11,01,33,13.70
2019,06,11,01,34,13.70
2019,06,11,01,35,13.70
2019,06,11,01,36,13.70
2019,06,11,01,37,13.70
2019,06,11,01,38,13.70
2019,06,11,01,39,13.60
2019,06,11,01,40,13.60
2019,06,11,01,41,13.60
2019,06,11,01,42,13.60
2019,06,11,01,43,13.60
2019,06,11,01,44,13.60
2019,06,11,01,45,13.60
2019,06,11,01,46,13.60
2019,06,11,01,47,13.60
2019,06,11,01,48,13.50
2019,06,11,01,49,13.50
2019,06,11,01,50,13.50
2019,06,11,01,51,13.50
2019,06,11,01,52,13.40
2019,06,11,01,53,13.40
2019,06,11,01,54,13.40
2019,06,11,01,55,13.40
2019,06,11,01,56,13.40
2019,06,11,01,57,13.40
2019,06,11,01,58,13.30
2019,06,11,01,59,13.30
2019,06,11,02,00,13.30
2019,06,11,02,01,13.30
2019,06,11,02,02,13.30
2019,06,11,02,03,13.30
2019,06,11,02,04,13.40
2019,06,11,02,05,13.30
2019,06,11,02,06,13.40
2019,06,11,02,07,13.30
2019,06,11,02,08,13.30
2019,06,11,02,09,13.40
2019,06,11,02,10,13.30
2019,06,11,02,11,13.30
2019,06,11,02,12,13.40
2019,06,11,02,13,13.40
2019,06,11,02,14,13.50
2019,06,11,02,15,13.50
2019,06,11,02,16,13.50
2019,06,11,02,17,13.50
2019,06,11,02,18,13.50
2019,06,11,02,19,13.60
2019,06,11,02,20,13.60
2019,06,11,02,21,13.60
2019,06,11,02,22,13.60
2019,06,11,02,23,13.70
2019,06,11,02,24,13.70
2019,06,11,02,25,13.80
2019,06,11,02,26,13.80
2019,06,11,02,27,13.80
2019,06,11,02,28,13.80
2019,06,11,02,29,14.00
2019,06,11,02,30,14.10
2019,06,11,02,31,14.10
2019,06,11,02,32,14.20
2019,06,11,02,33,14.30
2019,06,11,02,34,14.30
2019,06,11,02,35,14.40
2019,06,11,02,36,14.40
2019,06,11,02,37,14.50
2019,06,11,02,38,14.50
2019,06,11,02,39,14.60
2019,06,11,02,40,14.70
2019,06,11,02,41,14.70
2019,06,11,02,42,14.70
2019,06,11,02,43,14.70
2019,06,11,02,44,14.80
2019,06,11,02,45,14.80
2019,06,11,02,46,14.90
2019,06,11,02,47,15.00
2019,06,11,02,48,15.20
2019,06,11,02,49,15.30
2019,06,11,02,50,15.50
2019,06,11,02,51,15.70
2019,06,11,02,52,15.80
2019,06,11,02,53,15.90
2019,06,11,02,54,16.10
2019,06,11,02,55,16.20
2019,06,11,02,56,16.20
2019,06,11,02,57,16.30
2019,06,11,02,58,16.40
2019,06,11,02,59,16.50
2019,06,11,03,00,16.50
2019,06,11,03,01,16.60
2019,06,11,03,02,16.60
2019,06,11,03,03,16.60
2019,06,11,03,04,16.60
2019,06,11,03,05,16.60
2019,06,11,03,06,16.60
2019,06,11,03,07,16.60
2019,06,11,03,08,16.60
2019,06,11,03,09,16.60
2019,06,11,03,10,16.60
2019,06,11,03,11,16.60
2019,06,11,03,12,16.60
2019,06,11,03,13,16.60
2019,06,11,03,14,16.60
2019,06,11,03,15,16.70
2019,06,11,03,16,16.70
2019,06,11,03,17,16.80
2019,06,11,03,18,16.80
2019,06,11,03,19,16.80
2019,06,11,03,20,16.80
2019,06,11,03,21,16.80
2019,06,11,03,22,16.90
2019,06,11,03,23,16.90
2019,06,11,03,24,16.80
2019,06,11,03,25,16.80
2019,06,11,03,26,16.90
2019,06,11,03,27,16.90
2019,06,11,03,28,16.90
2019,06,11,03,29,17.00
2019,06,11,03,30,17.00
2019,06,11,03,31,17.00
2019,06,11,03,32,17.00
2019,06,11,03,33,17.00
2019,06,11,03,34,17.00
2019,06,11,03,35,17.00
2019,06,11,03,36,17.10
2019,06,11,03,37,17.10
2019,06,11,03,38,17.10
2019,06,11,03,39,17.10
2019,06,11,03,40,17.00
2019,06,11,03,41,17.10
2019,06,11,03,42,17.10
2019,06,11,03,43,17.10
2019,06,11,03,44,17.10
2019,06,11,03,45,17.10
2019,06,11,03,46,17.10
2019,06,11,03,47,17.10
2019,06,11,03,48,17.10
2019,06,11,03,49,17.00
2019,06,11,03,50,17.10
2019,06,11,03,51,17.10
2019,06,11,03,52,17.10
2019,06,11,03,53,17.10
2019,06,11,03,54,17.10
2019,06,11,03,55,17.10
2019,06,11,03,56,17.10
2019,06,11,03,57,17.10
2019,06,11,03,58,17.10
2019,06,11,03,59,17.10
2019,06,11,04,00,17.10
2019,06,11,04,01,17.10
2019,06,11,04,02,17.10
2019,06,11,04,03,17.10
2019,06,11,04,04,17.10
2019,06,11,04,05,17.00
2019,06,11,04,06,17.00
2019,06,11,04,07,17.00
2019,06,11,04,08,17.00
2019,06,11,04,09,17.00
2019,06,11,04,10,16.90
2019,06,11,04,11,16.90
2019,06,11,04,12,16.90
2019,06,11,04,13,16.90
2019,06,11,04,14,16.90
2019,06,11,04,15,16.90
2019,06,11,04,16,16.90
2019,06,11,04,17,16.80
2019,06,11,04,18,16.90
2019,06,11,04,19,16.80
2019,06,11,04,20,16.80
2019,06,11,04,21,16.80
2019,06,11,04,22,16.80
2019,06,11,04,23,16.70
2019,06,11,04,24,16.70
2019,06,11,04,25,16.70
2019,06,11,04,26,16.70
2019,06,11,04,27,16.70
2019,06,11,04,28,16.60
2019,06,11,04,29,16.60
2019,06,11,04,30,16.60
2019,06,11,04,31,16.60
2019,06,11,04,32,16.50
2019,06,11,04,33,16.50
2019,06,11,04,34,16.50
2019,06,11,04,35,16.50
2019,06,11,04,36,16.50
2019,06,11,04,37,16.50
2019,06,11,04,38,16.50
2019,06,11,04,39,16.50
2019,06,11,04,40,16.50
2019,06,11,04,41,16.50
2019,06,11,04,42,16.50
2019,06,11,04,43,16.40
2019,06,11,04,44,16.40
2019,06,11,04,45,16.40
2019,06,11,04,46,16.40
2019,06,11,04,47,16.40
2019,06,11,04,48,16.40
2019,06,11,04,49,16.40
2019,06,11,04,50,16.40
2019,06,11,04,51,16.40
2019,06,11,04,52,16.40
2019,06,11,04,53,16.40
2019,06,11,04,54,16.50
2019,06,11,04,55,16.50
2019,06,11,04,56,16.50
2019,06,11,04,57,16.50
2019,06,11,04,58,16.50
2019,06,11,04,59,16.50
2019,06,11,05,00,16.50
2019,06,11,05,01,16.50
2019,06,11,05,02,16.50
2019,06,11,05,03,16.40
2019,06,11,05,04,16.40
2019,06,11,05,05,16.40
2019,06,11,05,06,16.30
2019,06,11,05,07,16.30
2019,06,11,05,08,16.20
2019,06,11,05,09,16.20
2019,06,11,05,10,16.20
2019,06,11,05,11,16.20
2019,06,11,05,12,16.20
2019,06,11,05,13,16.20
2019,06,11,05,14,16.20
2019,06,11,05,15,16.20
2019,06,11,05,16,16.20
2019,06,11,05,17,16.20
2019,06,11,05,18,16.20
2019,06,11,05,19,16.20
2019,06,11,05,20,16.20
2019,06,11,05,21,16.20
2019,06,11,05,22,16.10
2019,06,11,05,23,16.20
2019,06,11,05,24,16.20
2019,06,11,05,25,16.20
2019,06,11,05,26,16.20
2019,06,11,05,27,16.20
2019,06,11,05,28,16.20
2019,06,11,05,29,16.20
2019,06,11,05,30,16.10
2019,06,11,05,31,16.10
2019,06,11,05,32,16.10
2019,06,11,05,33,16.10
2019,06,11,05,34,16.10
2019,06,11,05,35,16.10
2019,06,11,05,36,16.20
2019,06,11,05,37,16.20
2019,06,11,05,38,16.20
2019,06,11,05,39,16.20
2019,06,11,05,40,16.20
2019,06,11,05,41,16.20
2019,06,11,05,42,16.30
2019,06,11,05,43,16.20
2019,06,11,05,44,16.30
2019,06,11,05,45,16.30
2019,06,11,05,46,16.30
2019,06,11,05,47,16.30
2019,06,11,05,48,16.30
2019,06,11,05,49,16.30
2019,06,11,05,50,16.30
2019,06,11,05,51,16.30
2019,06,11,05,52,16.30
2019,06,11,05,53,16.30
2019,06,11,05,54,16.30
2019,06,11,05,55,16.30
2019,06,11,05,56,16.30
2019,06,11,05,57,16.20
2019,06,11,05,58,16.20
2019,06,11,05,59,16.20
2019,06,11,06,00,16.20
2019,06,11,06,01,16.30
2019,06,11,06,02,16.30
2019,06,11,06,03,16.30
2019,06,11,06,04,16.30
2019,06,11,06,05,16.30
2019,06,11,06,06,16.30
2019,06,11,06,07,16.30
2019,06,11,06,08,16.30
2019,06,11,06,09,16.30
2019,06,11,06,10,16.20
2019,06,11,06,11,16.20
2019,06,11,06,12,16.20
2019,06,11,06,13,16.20
2019,06,11,06,14,16.20
2019,06,11,06,15,16.20
2019,06,11,06,16,16.20
2019,06,11,06,17,16.20
2019,06,11,06,18,16.20
2019,06,11,06,19,16.20
2019,06,11,06,20,16.20
2019,06,11,06,21,16.20
2019,06,11,06,22,16.20
2019,06,11,06,23,16.20
2019,06,11,06,24,16.20
2019,06,11,06,25,16.20
2019,06,11,06,26,16.30
2019,06,11,06,27,16.30
2019,06,11,06,28,16.30
2019,06,11,06,29,16.30
2019,06,11,06,30,16.30
2019,06,11,06,31,16.30
2019,06,11,06,32,16.30
2019,06,11,06,33,16.30
2019,06,11,06,34,16.30
2019,06,11,06,35,16.30
2019,06,11,06,36,16.30
2019,06,11,06,37,16.40
2019,06,11,06,38,16.40
2019,06,11,06,39,16.40
2019,06,11,06,40,16.40
2019,06,11,06,41,16.40
2019,06,11,06,42,16.30
2019,06,11,06,43,16.30
2019,06,11,06,44,16.30
2019,06,11,06,45,16.30
2019,06,11,06,46,16.30
2019,06,11,06,47,16.30
2019,06,11,06,48,16.30
2019,06,11,06,49,16.30
2019,06,11,06,50,16.30
2019,06,11,06,51,16.30
2019,06,11,06,52,16.30
2019,06,11,06,53,16.30
2019,06,11,06,54,16.30
2019,06,11,06,55,16.30
2019,06,11,06,56,16.30
2019,06,11,06,57,16.30
2019,06,11,06,58,16.40
2019,06,11,06,59,16.40
2019,06,11,07,00,16.40
2019,06,11,07,01,16.40
2019,06,11,07,02,16.40
2019,06,11,07,03,16.40
2019,06,11,07,04,16.40
2019,06,11,07,05,16.50
2019,06,11,07,06,16.50
2019,06,11,07,07,16.50
2019,06,11,07,08,16.50
2019,06,11,07,09,16.50
2019,06,11,07,10,16.50
2019,06,11,07,11,16.50
2019,06,11,07,12,16.60
2019,06,11,07,13,16.60
2019,06,11,07,14,16.60
2019,06,11,07,15,16.60
2019,06,11,07,16,16.60
2019,06,11,07,17,16.60
2019,06,11,07,18,16.60
2019,06,11,07,19,16.60
2019,06,11,07,20,16.70
2019,06,11,07,21,16.70
2019,06,11,07,22,16.70
2019,06,11,07,23,16.70
2019,06,11,07,24,16.70
2019,06,11,07,25,16.80
2019,06,11,07,26,16.80
2019,06,11,07,27,16.80
2019,06,11,07,28,16.80
2019,06,11,07,29,16.80
2019,06,11,07,30,16.80
2019,06,11,07,31,16.80
2019,06,11,07,32,16.80
2019,06,11,07,33,16.80
2019,06,11,07,34,16.80
2019,06,11,07,35,16.80
2019,06,11,07,36,16.80
2019,06,11,07,37,16.80
2019,06,11,07,38,16.80
2019,06,11,07,39,16.80
2019,06,11,07,40,16.80
2019,06,11,07,41,16.80
2019,06,11,07,42,16.80
2019,06,11,07,43,16.80
2019,06,11,07,44,16.90
2019,06,11,07,45,16.90
2019,06,11,07,46,16.90
2019,06,11,07,47,16.90
2019,06,11,07,48,16.90
2019,06,11,07,49,16.90
2019,06,11,07,50,16.90
2019,06,11,07,51,17.00
2019,06,11,07,52,17.00
2019,06,11,07,53,17.00
2019,06,11,07,54,17.00
2019,06,11,07,55,17.00
2019,06,11,07,56,17.00
2019,06,11,07,57,17.00
2019,06,11,07,58,17.00
2019,06,11,07,59,17.00
2019,06,11,08,00,17.10
2019,06,11,08,01,17.10
2019,06,11,08,02,17.10
2019,06,11,08,03,17.10
2019,06,11,08,04,17.10
2019,06,11,08,05,17.10
2019,06,11,08,06,17.10
2019,06,11,08,07,17.10
2019,06,11,08,08,17.10
2019,06,11,08,09,17.10
2019,06,11,08,10,17.10
2019,06,11,08,11,17.10
2019,06,11,08,12,17.10
2019,06,11,08,13,17.20
2019,06,11,08,14,17.20
2019,06,11,08,15,17.20
2019,06,11,08,16,17.20
2019,06,11,08,17,17.20
2019,06,11,08,18,17.30
2019,06,11,08,19,17.30
2019,06,11,08,20,17.30
2019,06,11,08,21,17.30
2019,06,11,08,22,17.30
2019,06,11,08,23,17.30
2019,06,11,08,24,17.30
2019,06,11,08,25,17.30
2019,06,11,08,26,17.30
2019,06,11,08,27,17.30
2019,06,11,08,28,17.30
2019,06,11,08,29,17.40
2019,06,11,08,30,17.40
2019,06,11,08,31,17.30
2019,06,11,08,32,17.40
2019,06,11,08,33,17.40
2019,06,11,08,34,17.30
2019,06,11,08,35,17.30
2019,06,11,08,36,17.30
2019,06,11,08,37,17.30
2019,06,11,08,38,17.30
2019,06,11,08,39,17.40
2019,06,11,08,40,17.40
2019,06,11,08,41,17.40
2019,06,11,08,42,17.50
2019,06,11,08,43,17.50
2019,06,11,08,44,17.60
2019,06,11,08,45,17.60
2019,06,11,08,46,17.60
2019,06,11,08,47,17.60
2019,06,11,08,48,17.60
2019,06,11,08,49,17.60
2019,06,11,08,50,17.60
2019,06,11,08,51,17.70
2019,06,11,08,52,17.70
2019,06,11,08,53,17.70
2019,06,11,08,54,17.70
2019,06,11,08,55,17.70
2019,06,11,08,56,17.70
2019,06,11,08,57,17.80
2019,06,11,08,58,17.80
2019,06,11,08,59,17.80
2019,06,11,09,00,17.80
2019,06,11,09,01,17.80
2019,06,11,09,02,17.80
2019,06,11,09,03,17.80
2019,06,11,09,04,17.80
2019,06,11,09,05,17.80
2019,06,11,09,06,17.80
2019,06,11,09,07,17.90
2019,06,11,09,08,17.90
2019,06,11,09,09,17.90
2019,06,11,09,10,17.90
2019,06,11,09,11,18.00
2019,06,11,09,12,18.00
2019,06,11,09,13,18.10
2019,06,11,09,14,18.10
2019,06,11,09,15,18.10
2019,06,11,09,16,18.10
2019,06,11,09,17,18.10
2019,06,11,09,18,18.10
2019,06,11,09,19,18.10
2019,06,11,09,20,18.10
2019,06,11,09,21,18.10
2019,06,11,09,22,18.20
2019,06,11,09,23,18.30
2019,06,11,09,24,18.30
2019,06,11,09,25,18.40
2019,06,11,09,26,18.50
2019,06,11,09,27,18.50
2019,06,11,09,28,18.60
2019,06,11,09,29,18.60
2019,06,11,09,30,18.60
2019,06,11,09,31,18.60
2019,06,11,09,32,18.70
2019,06,11,09,33,18.70
2019,06,11,09,34,18.80
2019,06,11,09,35,18.80
2019,06,11,09,36,18.80
2019,06,11,09,37,18.70
2019,06,11,09,38,18.70
2019,06,11,09,39,18.70
2019,06,11,09,40,18.60
2019,06,11,09,41,18.60
2019,06,11,09,42,18.70
2019,06,11,09,43,18.70
2019,06,11,09,44,18.80
2019,06,11,09,45,18.80
2019,06,11,09,46,18.80
2019,06,11,09,47,18.90
2019,06,11,09,48,18.90
2019,06,11,09,49,18.90
2019,06,11,09,50,18.90
2019,06,11,09,51,18.90
2019,06,11,09,52,19.00
2019,06,11,09,53,19.00
2019,06,11,09,54,19.10
2019,06,11,09,55,19.20
2019,06,11,09,56,19.30
2019,06,11,09,57,19.30
2019,06,11,09,58,19.40
2019,06,11,09,59,19.40
2019,06,11,10,00,19.40
2019,06,11,10,01,19.40
2019,06,11,10,02,19.40
2019,06,11,10,03,19.40
2019,06,11,10,04,19.40
2019,06,11,10,05,19.50
2019,06,11,10,06,19.60
2019,06,11,10,07,19.60
2019,06,11,10,08,19.60
2019,06,11,10,09,19.50
2019,06,11,10,10,19.50
2019,06,11,10,11,19.50
2019,06,11,10,12,19.50
2019,06,11,10,13,19.60
2019,06,11,10,14,19.70
2019,06,11,10,15,19.70
2019,06,11,10,16,19.80
2019,06,11,10,17,19.70
2019,06,11,10,18,19.60
2019,06,11,10,19,19.60
2019,06,11,10,20,19.60
2019,06,11,10,21,19.60
2019,06,11,10,22,19.70
2019,06,11,10,23,19.70
2019,06,11,10,24,19.70
2019,06,11,10,25,19.70
2019,06,11,10,26,19.70
2019,06,11,10,27,19.70
2019,06,11,10,28,19.80
2019,06,11,10,29,19.70
2019,06,11,10,30,19.70
2019,06,11,10,31,19.70
2019,06,11,10,32,19.70
2019,06,11,10,33,19.70
2019,06,11,10,34,19.70
2019,06,11,10,35,19.70
2019,06,11,10,36,19.80
2019,06,11,10,37,19.90
2019,06,11,10,38,19.90
2019,06,11,10,39,20.00
2019,06,11,10,40,20.00
2019,06,11,10,41,20.00
2019,06,11,10,42,20.10
2019,06,11,10,43,20.10
2019,06,11,10,44,20.20
2019,06,11,10,45,20.10
2019,06,11,10,46,20.20
2019,06,11,10,47,20.20
2019,06,11,10,48,20.30
2019,06,11,10,49,20.30
2019,06,11,10,50,20.40
2019,06,11,10,51,20.40
2019,06,11,10,52,20.50
2019,06,11,10,53,20.60
2019,06,11,10,54,20.60
2019,06,11,10,55,20.60
2019,06,11,10,56,20.70
2019,06,11,10,57,20.70
2019,06,11,10,58,20.70
2019,06,11,10,59,20.80
2019,06,11,11,00,20.90
2019,06,11,11,01,20.90
2019,06,11,11,02,21.00
2019,06,11,11,03,21.10
2019,06,11,11,04,21.10
2019,06,11,11,05,21.10
2019,06,11,11,06,21.10
2019,06,11,11,07,21.00
2019,06,11,11,08,21.00
2019,06,11,11,09,21.00
2019,06,11,11,10,21.00
2019,06,11,11,11,21.00
2019,06,11,11,12,21.10
2019,06,11,11,13,21.10
2019,06,11,11,14,21.00
2019,06,11,11,15,21.00
2019,06,11,11,16,21.00
2019,06,11,11,17,21.00
2019,06,11,11,18,21.10
2019,06,11,11,19,21.10
2019,06,11,11,20,21.00
2019,06,11,11,21,21.00
2019,06,11,11,22,21.00
2019,06,11,11,23,20.90
2019,06,11,11,24,20.80
2019,06,11,11,25,20.70
2019,06,11,11,26,20.60
2019,06,11,11,27,20.60
2019,06,11,11,28,20.60
2019,06,11,11,29,20.60
2019,06,11,11,30,20.50
2019,06,11,11,31,20.50
2019,06,11,11,32,20.60
2019,06,11,11,33,20.60
2019,06,11,11,34,20.60
2019,06,11,11,35,20.60
2019,06,11,11,36,20.70
2019,06,11,11,37,20.70
2019,06,11,11,38,20.70
2019,06,11,11,39,20.60
2019,06,11,11,40,20.60
2019,06,11,11,41,20.70
2019,06,11,11,42,20.80
2019,06,11,11,43,20.80
2019,06,11,11,44,20.80
2019,06,11,11,45,20.80
2019,06,11,11,46,20.80
2019,06,11,11,47,20.80
2019,06,11,11,48,20.90
2019,06,11,11,49,20.90
2019,06,11,11,50,20.90
2019,06,11,11,51,20.80
2019,06,11,11,52,20.80
2019,06,11,11,53,20.80
2019,06,11,11,54,20.80
2019,06,11,11,55,20.80
2019,06,11,11,56,20.90
2019,06,11,11,57,20.90
2019,06,11,11,58,21.00
2019,06,11,11,59,21.10
2019,06,11,12,00,21.00
2019,06,11,12,01,21.00
2019,06,11,12,02,20.90
2019,06,11,12,03,21.00
2019,06,11,12,04,21.10
2019,06,11,12,05,21.10
2019,06,11,12,06,21.20
2019,06,11,12,07,21.30
2019,06,11,12,08,21.40
2019,06,11,12,09,21.50
2019,06,11,12,10,21.50
2019,06,11,12,11,21.50
2019,06,11,12,12,21.60
2019,06,11,12,13,21.70
2019,06,11,12,14,21.80
2019,06,11,12,15,21.90
2019,06,11,12,16,21.80
2019,06,11,12,17,21.90
2019,06,11,12,18,21.90
2019,06,11,12,19,21.80
2019,06,11,12,20,21.80
2019,06,11,12,21,21.80
2019,06,11,12,22,21.80
2019,06,11,12,23,21.80
2019,06,11,12,24,21.80
2019,06,11,12,25,21.90
2019,06,11,12,26,21.90
2019,06,11,12,27,21.90
2019,06,11,12,28,21.90
2019,06,11,12,29,21.90
2019,06,11,12,30,22.00
2019,06,11,12,31,22.00
2019,06,11,12,32,22.00
2019,06,11,12,33,22.20
2019,06,11,12,34,22.30
2019,06,11,12,35,22.40
2019,06,11,12,36,22.60
2019,06,11,12,37,22.80
2019,06,11,12,38,22.80
2019,06,11,12,39,22.80
2019,06,11,12,40,22.80
2019,06,11,12,41,22.80
2019,06,11,12,42,22.80
2019,06,11,12,43,22.80
2019,06,11,12,44,22.80
2019,06,11,12,45,22.80
2019,06,11,12,46,22.80
2019,06,11,12,47,22.80
2019,06,11,12,48,22.90
2019,06,11,12,49,22.90
2019,06,11,12,50,22.80
2019,06,11,12,51,22.80
2019,06,11,12,52,22.90
2019,06,11,12,53,22.80
2019,06,11,12,54,22.80
2019,06,11,12,55,22.70
2019,06,11,12,56,22.70
2019,06,11,12,57,22.70
2019,06,11,12,58,22.70
2019,06,11,12,59,22.70
2019,06,11,13,00,22.80
2019,06,11,13,01,22.80
2019,06,11,13,02,22.90
2019,06,11,13,03,23.00
2019,06,11,13,04,23.10
2019,06,11,13,05,23.10
2019,06,11,13,06,23.10
2019,06,11,13,07,23.20
2019,06,11,13,08,23.20
2019,06,11,13,09,23.30
2019,06,11,13,10,23.30
2019,06,11,13,11,23.30
2019,06,11,13,12,23.30
2019,06,11,13,13,23.40
2019,06,11,13,14,23.40
2019,06,11,13,15,23.50
2019,06,11,13,16,23.50
2019,06,11,13,17,23.40
2019,06,11,13,18,23.40
2019,06,11,13,19,23.40
2019,06,11,13,20,23.30
2019,06,11,13,21,23.20
2019,06,11,13,22,23.20
2019,06,11,13,23,23.30
2019,06,11,13,24,23.30
2019,06,11,13,25,23.30
2019,06,11,13,26,23.30
2019,06,11,13,27,23.40
2019,06,11,13,28,23.30
2019,06,11,13,29,23.40
2019,06,11,13,30,23.40
2019,06,11,13,31,23.40
2019,06,11,13,32,23.40
2019,06,11,13,33,23.40
2019,06,11,13,34,23.40
2019,06,11,13,35,23.50
2019,06,11,13,36,23.50
2019,06,11,13,37,23.50
2019,06,11,13,38,23.50
2019,06,11,13,39,23.50
2019,06,11,13,40,23.60
2019,06,11,13,41,23.60
2019,06,11,13,42,23.70
2019,06,11,13,43,23.70
2019,06,11,13,44,23.70
2019,06,11,13,45,23.80
2019,06,11,13,46,23.80
2019,06,11,13,47,23.80
2019,06,11,13,48,23.80
2019,06,11,13,49,23.80
2019,06,11,13,50,23.80
2019,06,11,13,51,23.80
2019,06,11,13,52,23.70
2019,06,11,13,53,23.60
2019,06,11,13,54,23.60
2019,06,11,13,55,23.70
2019,06,11,13,56,23.90
2019,06,11,13,57,24.00
2019,06,11,13,58,24.10
2019,06,11,13,59,24.20
2019,06,11,14,00,24.30
2019,06,11,14,01,24.30
2019,06,11,14,02,24.20
2019,06,11,14,03,24.10
2019,06,11,14,04,24.10
2019,06,11,14,05,24.00
2019,06,11,14,06,23.90
2019,06,11,14,07,23.90
2019,06,11,14,08,23.90
2019,06,11,14,09,23.90
2019,06,11,14,10,23.90
2019,06,11,14,11,23.90
2019,06,11,14,12,23.80
2019,06,11,14,13,23.80
2019,06,11,14,14,23.80
2019,06,11,14,15,23.80
2019,06,11,14,16,23.80
2019,06,11,14,17,23.80
2019,06,11,14,18,23.80
2019,06,11,14,19,23.90
2019,06,11,14,20,24.00
2019,06,11,14,21,24.10
2019,06,11,14,22,24.20
2019,06,11,14,23,24.30
2019,06,11,14,24,24.30
2019,06,11,14,25,24.30
2019,06,11,14,26,24.30
2019,06,11,14,27,24.30
2019,06,11,14,28,24.40
2019,06,11,14,29,24.40
2019,06,11,14,30,24.40
2019,06,11,14,31,24.40
2019,06,11,14,32,24.40
2019,06,11,14,33,24.40
2019,06,11,14,34,24.30
2019,06,11,14,35,24.20
2019,06,11,14,36,24.20
2019,06,11,14,37,24.20
2019,06,11,14,38,24.20
2019,06,11,14,39,24.20
2019,06,11,14,40,24.20
2019,06,11,14,41,24.30
2019,06,11,14,42,24.30
2019,06,11,14,43,24.30
2019,06,11,14,44,24.40
2019,06,11,14,45,24.40
2019,06,11,14,46,24.40
2019,06,11,14,47,24.40
2019,06,11,14,48,24.40
2019,06,11,14,49,24.50
2019,06,11,14,50,24.50
2019,06,11,14,51,24.50
2019,06,11,14,52,24.40
2019,06,11,14,53,24.40
2019,06,11,14,54,24.40
2019,06,11,14,55,24.50
2019,06,11,14,56,24.60
2019,06,11,14,57,24.60
2019,06,11,14,58,24.70
2019,06,11,14,59,24.80
2019,06,11,15,00,24.90
2019,06,11,15,01,25.00
2019,06,11,15,02,25.00
2019,06,11,15,03,25.00
2019,06,11,15,04,25.00
2019,06,11,15,05,25.00
2019,06,11,15,06,25.00
2019,06,11,15,07,25.00
2019,06,11,15,08,24.90
2019,06,11,15,09,24.90
2019,06,11,15,10,24.90
2019,06,11,15,11,24.90
2019,06,11,15,12,24.90
2019,06,11,15,13,24.80
2019,06,11,15,14,24.80
2019,06,11,15,15,24.90
2019,06,11,15,16,24.90
2019,06,11,15,17,25.00
2019,06,11,15,18,24.90
2019,06,11,15,19,24.90
2019,06,11,15,20,24.80
2019,06,11,15,21,24.90
2019,06,11,15,22,24.90
2019,06,11,15,23,25.00
2019,06,11,15,24,25.10
2019,06,11,15,25,25.10
2019,06,11,15,26,25.10
2019,06,11,15,27,25.20
2019,06,11,15,28,25.30
2019,06,11,15,29,25.40
2019,06,11,15,30,25.50
2019,06,11,15,31,25.60
2019,06,11,15,32,25.70
2019,06,11,15,33,25.70
2019,06,11,15,34,25.70
2019,06,11,15,35,25.70
2019,06,11,15,36,25.80
2019,06,11,15,37,25.90
2019,06,11,15,38,26.00
2019,06,11,15,39,26.10
2019,06,11,15,40,26.20
2019,06,11,15,41,26.20
2019,06,11,15,42,26.20
2019,06,11,15,43,26.30
2019,06,11,15,44,26.30
2019,06,11,15,45,26.30
2019,06,11,15,46,26.40
2019,06,11,15,47,26.40
2019,06,11,15,48,26.40
2019,06,11,15,49,26.30
2019,06,11,15,50,26.30
2019,06,11,15,51,26.20
2019,06,11,15,52,26.10
2019,06,11,15,53,26.10
2019,06,11,15,54,26.10
2019,06,11,15,55,26.10
2019,06,11,15,56,26.10
2019,06,11,15,57,26.20
2019,06,11,15,58,26.20
2019,06,11,15,59,26.30
2019,06,11,16,00,26.30
2019,06,11,16,01,26.40
2019,06,11,16,02,26.40
2019,06,11,16,03,26.40
2019,06,11,16,04,26.40
2019,06,11,16,05,26.40
2019,06,11,16,06,26.40
2019,06,11,16,07,26.50
2019,06,11,16,08,26.60
2019,06,11,16,09,26.50
2019,06,11,16,10,26.60
2019,06,11,16,11,26.60
2019,06,11,16,12,26.60
2019,06,11,16,13,26.50
2019,06,11,16,14,26.40
2019,06,11,16,15,26.40
2019,06,11,16,16,26.40
2019,06,11,16,17,26.40
2019,06,11,16,18,26.40
2019,06,11,16,19,26.40
2019,06,11,16,20,26.40
2019,06,11,16,21,26.40
2019,06,11,16,22,26.40
2019,06,11,16,23,26.40
2019,06,11,16,24,26.40
2019,06,11,16,25,26.40
2019,06,11,16,26,26.50
2019,06,11,16,27,26.60
2019,06,11,16,28,26.60
2019,06,11,16,29,26.60
2019,06,11,16,30,26.70
2019,06,11,16,31,26.70
2019,06,11,16,32,26.70
2019,06,11,16,33,26.70
2019,06,11,16,34,26.70
2019,06,11,16,35,26.70
2019,06,11,16,36,26.70
2019,06,11,16,37,26.70
2019,06,11,16,38,26.70
2019,06,11,16,39,26.80
2019,06,11,16,40,26.80
2019,06,11,16,41,26.80
2019,06,11,16,42,26.90
2019,06,11,16,43,26.90
2019,06,11,16,44,26.80
2019,06,11,16,45,26.80
2019,06,11,16,46,26.70
2019,06,11,16,47,26.70
2019,06,11,16,48,26.60
2019,06,11,16,49,26.50
2019,06,11,16,50,26.50
2019,06,11,16,51,26.50
2019,06,11,16,52,26.50
2019,06,11,16,53,26.40
2019,06,11,16,54,26.40
2019,06,11,16,55,26.40
2019,06,11,16,56,26.40
2019,06,11,16,57,26.50
2019,06,11,16,58,26.60
2019,06,11,16,59,26.70
2019,06,11,17,00,26.70
2019,06,11,17,01,26.80
2019,06,11,17,02,26.90
2019,06,11,17,03,26.90
2019,06,11,17,04,27.00
2019,06,11,17,05,27.00
2019,06,11,17,06,27.10
2019,06,11,17,07,27.10
2019,06,11,17,08,27.00
2019,06,11,17,09,26.90
2019,06,11,17,10,26.80
2019,06,11,17,11,26.70
2019,06,11,17,12,26.70
2019,06,11,17,13,26.80
2019,06,11,17,14,26.80
2019,06,11,17,15,26.80
2019,06,11,17,16,26.80
2019,06,11,17,17,26.70
2019,06,11,17,18,26.50
2019,06,11,17,19,26.50